#timestamp,LO_Frequency,Hit,StdDev 
1693497615.4,286047001.2,N
1693497635.2,286046998.4,N
1693497655.0,286046998.7,N
1693497655.9,286046998.7,N
1693497675.8,286047000.7,N
1693497695.6,286047000.5,N
1693497715.4,286046998.5,N
1693497735.3,286047000.9,N
1693497755.1,286046998.4,N
1693497775.8,286047002.2,N
1693497795.7,286046998.3,N
1693497815.5,286046998.9,N
1693497835.3,286046998.9,N
1693497855.2,286046999.2,N
1693497875.0,286047000.2,N
1693497875.9,286047000.2,N
1693497895.7,286046999.6,N
1693497915.6,286046996.6,N
1693497935.4,286046997.8,N
1693497955.2,286046996.5,N
1693497975.1,286046996.7,N
1693497976.0,286046996.7,N
1693497995.8,286046997.1,N
1693498015.6,286046996.6,N
1693498035.5,286047002.6,N
1693498055.3,286046998.2,N
1693498075.1,286046998.6,N
1693498095.9,286046997.4,N
1693498115.7,286046995.3,N
1693498135.5,286046995.2,N
1693498155.4,286046998.0,N
1693498175.2,286046997.1,N
1693498195.0,286046998.0,N
1693498195.9,286046998.0,N
1693498215.8,286046998.0,N
1693498235.6,286046995.1,N
1693498255.4,286046996.0,N
1693498275.3,286046998.8,N
1693498295.1,286046995.7,N
1693498315.9,286046994.7,N
1693498335.7,286046992.4,Y
1693498355.5,286046993.7,P
1693498375.4,286046993.7,P
1693498395.2,286046996.4,N
1693498415.0,286046996.4,N
1693498415.9,286046996.4,N
1693498435.8,286046994.6,Y
1693498455.6,286046999.2,P
1693498475.4,286046999.1,N
1693498495.3,286046997.7,N
1693498515.1,286046999.6,N
1693498516.0,286046999.6,N
1693498535.8,286046999.6,N
1693498555.7,286046999.3,N
1693498575.5,286046998.8,N
1693498595.3,286046999.3,N
1693498615.2,286046998.3,N
1693498635.9,286046999.6,N
1693498655.7,286046999.3,N
1693498675.6,286046999.5,N
1693498695.4,286046998.4,N
1693498715.2,286046998.4,N
1693498735.1,286046998.6,N
1693498736.0,286046998.6,N
1693498755.8,286046998.2,N
1693498775.6,286046999.5,N
1693498795.5,286047000.7,N
1693498815.3,286046998.6,N
1693498835.1,286046999.3,N
1693498855.9,286046998.4,N
1693498875.7,286047000.3,N
1693498895.5,286047000.9,N
1693498915.4,286047001.0,N
1693498935.2,286046998.3,N
1693498955.0,286047000.9,N
1693498955.9,286047000.9,N
1693498975.8,286047001.0,N
1693498995.6,286046998.4,N
1693499015.4,286047000.8,N
1693499035.3,286047000.6,N
1693499055.1,286047000.4,N
1693499056.0,286047000.4,N
1693499075.8,286047001.4,N
1693499095.7,286047002.1,N
1693499115.5,286047004.0,Y
1693499135.3,286047004.4,P
1693499155.2,286047001.8,N
1693499175.9,286047005.2,N
1693499195.7,286047001.4,N
1693499215.6,286047004.4,N
1693499235.4,286047002.1,N
1693499255.2,286046998.1,N
1693499275.1,286047000.9,N
1693499276.0,286047000.9,N
1693499295.8,286047000.0,N
1693499315.6,286047000.6,N
1693499335.5,286047000.7,N
1693499355.3,286047001.0,N
1693499375.1,286047001.1,N
1693499395.9,286047000.6,N
1693499415.7,286047000.6,N
1693499435.5,286047000.8,N
1693499455.4,286047001.0,N
1693499475.2,286047000.6,N
1693499495.0,286046998.5,N
1693499495.9,286046998.5,N
1693499515.8,286047000.9,N
1693499535.6,286046999.7,N
1693499555.4,286047002.8,N
1693499575.3,286047000.0,N
1693499595.1,286047002.1,N
1693499596.0,286047002.1,N
1693499615.8,286047000.1,N
1693499635.7,286047002.8,N
1693499655.5,286047002.8,N
1693499675.3,286047002.3,N
1693499695.2,286046999.9,N
1693499715.9,286047002.0,N
1693499735.7,286047001.9,N
1693499755.6,286047002.2,N
1693499775.4,286047001.5,N
1693499795.2,286047001.4,N
1693499815.1,286047004.4,Y
1693499816.0,286047004.4,P
1693499835.8,286047002.3,N
1693499855.6,286047002.7,N
1693499875.5,286047002.5,N
1693499895.3,286047001.4,N
1693499915.1,286047001.4,N
1693499935.9,286047001.7,N
1693499955.7,286047002.5,N
1693499975.5,286047002.6,N
1693499995.4,286047001.9,N
1693500015.2,286047007.5,Y
1693500035.0,286047002.2,P
1693500035.9,286047002.2,P
1693500055.8,286047001.9,P
1693500075.6,286046999.7,N
1693500095.4,286047001.5,N
1693500115.3,286047001.0,N
1693500135.1,286047001.1,N
1693500155.8,286047000.5,N
1693500175.7,286047000.8,N
1693500195.5,286047000.8,N
1693500215.3,286047000.7,N
1693500235.2,286047000.6,N
1693500255.0,286046998.5,N
1693500255.9,286046998.5,N
1693500275.7,286046998.9,N
1693500295.6,286046998.1,N
1693500315.4,286047000.5,N
1693500335.2,286047001.2,N
1693500355.1,286047000.5,N
1693500356.0,286047000.5,N
1693500375.8,286047000.1,N
1693500395.6,286046999.7,N
1693500415.5,286046999.9,N
1693500435.3,286046999.9,N
1693500455.1,286047000.2,N
1693500475.9,286047002.3,N
1693500495.7,286047002.2,N
1693500515.5,286047002.6,N
1693500535.4,286047002.8,N
1693500555.2,286047001.9,N
1693500575.0,286047002.1,N
1693500575.9,286047002.1,N
1693500595.8,286047003.9,Y
1693500615.6,286047004.1,P
1693500635.4,286047004.4,N
1693500655.3,286047001.3,N
1693500675.1,286047003.8,N
1693500695.8,286047003.2,N
1693500715.7,286047005.9,Y
1693500735.5,286047002.3,P
1693500755.3,286047002.4,P
1693500775.2,286047003.9,P
1693500795.0,286046999.7,N
1693500795.9,286046999.7,N
1693500815.7,286047002.6,N
1693500835.6,286047001.8,N
1693500855.4,286047003.7,N
1693500875.2,286047003.5,N
1693500895.1,286047004.1,N
1693500896.0,286047004.1,N
1693500915.8,286047003.2,N
1693500935.7,286047004.4,Y
1693500955.5,286046998.6,P
1693500975.3,286046998.5,N
1693500995.2,286047000.6,N
1693501015.9,286046998.1,N
1693501035.7,286046999.4,N
1693501055.6,286046999.0,N
1693501075.4,286046998.9,N
1693501095.2,286046998.3,N
1693501115.0,286047001.2,N
1693501116.0,286047001.2,N
1693501135.8,286046999.7,N
1693501155.6,286047003.7,N
1693501175.5,286047002.6,N
1693501195.3,286047000.2,N
